Weather History for Houston / Dunn Helistop, TX

Change the Weather History Date:

Saturday, June 15, 2013

  Actual Average (KHOU) Record (KHOU)
Temperature  
Mean Temperature 86 °F 82 °F  
Max Temperature 95 °F 92 °F 100 °F (2011)
Min Temperature 78 °F 73 °F 55 °F (1903)
Cooling Degree Days 22 17  
Month to date cooling degree days 247  
Year to date cooling degree days 899  
Since 1 June cooling degree days 247  
Growing Degree Days 36 (Base 50)    
Moisture  
Dew Point 72 °F    
Average Humidity 65    
Maximum Humidity 84    
Minimum Humidity 41    
Precipitation  
Precipitation 0.00 in 0.21 in 5.68 in (1918)
Month to date precipitation 2.87  
Year to date precipitation 21.26  
Sea Level Pressure  
Sea Level Pressure 29.92 in    
Wind  
Wind Speed 5 mph (SSW)    
Max Wind Speed 16 mph    
Max Gust Speed 21 mph    
Visibility 9 miles    
Events      
T = Trace of Precipitation, MM = Missing Value Source: NWS Daily Summary

Daily Weather History Graph

Daily Weather History Graph

Search for Another Location

Airport:

Trip Planner

Search our weather history database for the weather conditions in past years. The results will help you decide how hot, cold, wet, or windy it might be!

Date:

Astronomy

Jun. 15, 2013 Rise Set
Actual Time 6:20 AM CDT 8:23 PM CDT
Civil Twilight 5:53 AM CDT 8:50 PM CDT
Nautical Twilight 5:20 AM CDT 9:24 PM CDT
Astronomical Twilight 4:44 AM CDT 9:59 PM CDT
Moon 12:30 PM CDT (6/15) 12:23 AM CDT (6/15)
Length of Visible Light 14h 57m
Length of Day
14h 02m
Waxing Crescent, 40% of the Moon is Illuminated
Jun 15
Waxing Crescent
Jun 16
First Quarter
Jun 23
Full
Jun 29
Last Quarter
Jul 8
New

Hourly Weather History & Observations

Time (CDT) Temp. Heat Index Dew Point Humidity Pressure Visibility Wind Dir Wind Speed Gust Speed Precip Events Conditions
12:15 AM 80.6 °F 85.4 °F 73.4 °F 79% 29.93 in 10.0 mi SW 5.8 mph - N/A   Clear
12:35 AM 80.6 °F 85.4 °F 73.4 °F 79% 29.93 in 10.0 mi SW 6.9 mph - N/A   Clear
12:55 AM 80.6 °F 85.4 °F 73.4 °F 79% 29.92 in 10.0 mi SW 6.9 mph - N/A   Clear
1:15 AM 80.6 °F 85.4 °F 73.4 °F 79% 29.91 in 9.0 mi WSW 4.6 mph - N/A   Clear
1:35 AM 80.6 °F 85.4 °F 73.4 °F 79% 29.90 in 9.0 mi West 4.6 mph - N/A   Clear
1:55 AM 80.6 °F 85.4 °F 73.4 °F 79% 29.89 in 10.0 mi West 4.6 mph - N/A   Clear
2:15 AM 80.6 °F 85.4 °F 73.4 °F 79% 29.90 in 10.0 mi WSW 5.8 mph - N/A   Clear
2:35 AM 80.6 °F 85.4 °F 73.4 °F 79% 29.89 in 10.0 mi WSW 5.8 mph - N/A   Clear
2:55 AM 80.6 °F 85.4 °F 73.4 °F 79% 29.89 in 10.0 mi WSW 6.9 mph - N/A   Clear
3:15 AM 80.6 °F 85.4 °F 73.4 °F 79% 29.90 in 10.0 mi SW 3.5 mph - N/A   Clear
3:35 AM 80.6 °F 86.2 °F 75.2 °F 84% 29.90 in 9.0 mi Calm Calm - N/A   Mostly Cloudy
3:55 AM 80.6 °F 86.2 °F 75.2 °F 84% 29.90 in 10.0 mi Calm Calm - N/A   Overcast
4:15 AM 80.6 °F 85.4 °F 73.4 °F 79% 29.91 in 10.0 mi Calm Calm - N/A   Overcast
4:35 AM 80.6 °F 85.4 °F 73.4 °F 79% 29.90 in 9.0 mi Calm Calm - N/A   Overcast
4:55 AM 80.6 °F 86.2 °F 75.2 °F 84% 29.90 in 9.0 mi SE 4.6 mph - N/A   Mostly Cloudy
5:15 AM 78.8 °F - 73.4 °F 83% 29.91 in 9.0 mi SE 3.5 mph - N/A   Scattered Clouds
5:35 AM 78.8 °F - 73.4 °F 83% 29.91 in 9.0 mi Calm Calm - N/A   Partly Cloudy
5:55 AM 78.8 °F - 73.4 °F 83% 29.92 in 9.0 mi Calm Calm - N/A   Partly Cloudy
6:15 AM 78.8 °F - 73.4 °F 83% 29.92 in 9.0 mi Calm Calm - N/A   Clear
6:35 AM 78.8 °F - 73.4 °F 83% 29.93 in 6.0 mi Calm Calm - N/A   Clear
6:55 AM 80.6 °F 85.4 °F 73.4 °F 79% 29.94 in 7.0 mi WSW 4.6 mph - N/A   Clear
7:15 AM 80.6 °F 86.2 °F 75.2 °F 84% 29.94 in 7.0 mi Calm Calm - N/A   Partly Cloudy
7:35 AM 80.6 °F 85.4 °F 73.4 °F 79% 29.95 in 7.0 mi Calm Calm - N/A   Mostly Cloudy
7:55 AM 80.6 °F 85.4 °F 73.4 °F 79% 29.96 in 7.0 mi SW 3.5 mph - N/A   Mostly Cloudy
8:15 AM 82.4 °F 89.5 °F 75.2 °F 79% 29.96 in 7.0 mi SW 5.8 mph - N/A   Scattered Clouds
8:35 AM 82.4 °F 88.2 °F 73.4 °F 74% 29.96 in 8.0 mi SSW 4.6 mph - N/A   Partly Cloudy
8:55 AM 84.2 °F 90.9 °F 73.4 °F 70% 29.97 in 8.0 mi WSW 4.6 mph - N/A   Clear
9:15 AM 84.2 °F 90.9 °F 73.4 °F 70% 29.97 in 7.0 mi SW 6.9 mph - N/A   Partly Cloudy
9:35 AM 86.0 °F 93.4 °F 73.4 °F 66% 29.97 in 8.0 mi Calm Calm - N/A   Scattered Clouds
9:55 AM 86.0 °F 93.4 °F 73.4 °F 66% 29.97 in 8.0 mi WSW 4.6 mph - N/A   Partly Cloudy
10:15 AM 87.8 °F 93.8 °F 71.6 °F 58% 29.97 in 9.0 mi WSW 4.6 mph - N/A   Partly Cloudy
10:35 AM 87.8 °F 95.6 °F 73.4 °F 62% 29.97 in 8.0 mi South 5.8 mph - N/A   Scattered Clouds
10:55 AM 89.6 °F 96.2 °F 71.6 °F 55% 29.97 in 9.0 mi South 11.5 mph 16.1 mph N/A   Partly Cloudy
11:15 AM 87.8 °F 92.6 °F 69.8 °F 55% 29.97 in 9.0 mi SSE 8.1 mph - N/A   Partly Cloudy
11:35 AM 87.8 °F 92.6 °F 69.8 °F 55% 29.97 in 9.0 mi SSW 3.5 mph - N/A   Partly Cloudy
11:55 AM 91.4 °F 96.8 °F 69.8 °F 49% 29.97 in 9.0 mi South 8.1 mph - N/A   Partly Cloudy
12:15 PM 93.2 °F 97.7 °F 68.0 °F 44% 29.96 in 9.0 mi ESE 3.5 mph - N/A   Partly Cloudy
12:35 PM 93.2 °F 97.7 °F 68.0 °F 44% 29.96 in 9.0 mi SSE 5.8 mph - N/A   Partly Cloudy
12:55 PM 95.0 °F 99.5 °F 68.0 °F 41% 29.95 in 9.0 mi ESE 3.5 mph - N/A   Partly Cloudy
1:15 PM 95.0 °F 101.3 °F 69.8 °F 44% 29.94 in 8.0 mi South 6.9 mph - N/A   Mostly Cloudy
1:35 PM 95.0 °F 103.2 °F 71.6 °F 47% 29.94 in 8.0 mi SSW 8.1 mph - N/A   Mostly Cloudy
1:55 PM 93.2 °F 100.5 °F 71.6 °F 49% 29.94 in 9.0 mi Calm Calm - N/A   Scattered Clouds
2:15 PM 91.4 °F 98.4 °F 71.6 °F 52% 29.93 in 9.0 mi South 6.9 mph - N/A   Mostly Cloudy
2:35 PM 91.4 °F 98.4 °F 71.6 °F 52% 29.93 in 9.0 mi South 8.1 mph - N/A   Partly Cloudy
2:55 PM 91.4 °F 95.4 °F 68.0 °F 46% 29.92 in 9.0 mi WSW 4.6 mph - N/A   Clear
3:15 PM 93.2 °F 97.7 °F 68.0 °F 44% 29.92 in 9.0 mi South 6.9 mph - N/A   Clear
3:35 PM 93.2 °F 96.2 °F 66.2 °F 41% 29.92 in 9.0 mi WSW 5.8 mph - N/A   Clear
3:55 PM 95.0 °F 99.5 °F 68.0 °F 41% 29.91 in 9.0 mi SE 5.8 mph - N/A   Partly Cloudy
4:15 PM 91.4 °F 95.4 °F 68.0 °F 46% 29.90 in 9.0 mi SSE 4.6 mph - N/A   Clear
4:35 PM 93.2 °F 97.7 °F 68.0 °F 44% 29.90 in 9.0 mi SSW 3.5 mph - N/A   Scattered Clouds
4:55 PM 91.4 °F 98.4 °F 71.6 °F 52% 29.89 in 9.0 mi SSE 10.4 mph - N/A   Partly Cloudy
5:15 PM 93.2 °F 100.5 °F 71.6 °F 49% 29.89 in 9.0 mi SSW 5.8 mph - N/A   Scattered Clouds
5:35 PM 91.4 °F 96.8 °F 69.8 °F 49% 29.89 in 10.0 mi Calm Calm - N/A   Partly Cloudy
5:55 PM 93.2 °F 98.8 °F 69.8 °F 46% 29.88 in 8.0 mi SSW 8.1 mph 16.1 mph N/A   Partly Cloudy
6:15 PM 91.4 °F 98.4 °F 71.6 °F 52% 29.87 in 9.0 mi South 11.5 mph 17.3 mph N/A   Clear
6:35 PM 91.4 °F 98.4 °F 71.6 °F 52% 29.87 in 9.0 mi SSE 13.8 mph 19.6 mph N/A   Partly Cloudy
6:55 PM 89.6 °F 96.2 °F 71.6 °F 55% 29.87 in 9.0 mi South 16.1 mph 20.7 mph N/A   Partly Cloudy
7:15 PM 89.6 °F 96.2 °F 71.6 °F 55% 29.88 in 9.0 mi South 9.2 mph 18.4 mph N/A   Clear
7:35 PM 89.6 °F 98.2 °F 73.4 °F 59% 29.88 in 9.0 mi South 10.4 mph 17.3 mph N/A   Clear
7:55 PM 87.8 °F 93.8 °F 71.6 °F 58% 29.89 in 9.0 mi South 11.5 mph 17.3 mph N/A   Clear
8:15 PM 86.0 °F 91.8 °F 71.6 °F 62% 29.89 in 9.0 mi South 10.4 mph 16.1 mph N/A   Clear
8:35 PM 86.0 °F 91.8 °F 71.6 °F 62% 29.90 in 9.0 mi South 10.4 mph 16.1 mph N/A   Clear
8:55 PM 86.0 °F 91.8 °F 71.6 °F 62% 29.90 in 10.0 mi South 8.1 mph - N/A   Clear
9:15 PM 84.2 °F 89.6 °F 71.6 °F 66% 29.91 in 10.0 mi South 8.1 mph - N/A   Clear
9:35 PM 84.2 °F 89.6 °F 71.6 °F 66% 29.92 in 10.0 mi SSW 8.1 mph - N/A   Clear
9:55 PM 82.4 °F 87.2 °F 71.6 °F 70% 29.93 in 10.0 mi South 6.9 mph - N/A   Clear
10:15 PM 82.4 °F 88.2 °F 73.4 °F 74% 29.94 in 10.0 mi SSW 5.8 mph - N/A   Clear
10:35 PM 82.4 °F 88.2 °F 73.4 °F 74% 29.94 in 10.0 mi South 5.8 mph - N/A   Clear
10:55 PM 80.6 °F 85.4 °F 73.4 °F 79% 29.95 in 10.0 mi South 10.4 mph - N/A   Clear
11:15 PM 80.6 °F 85.4 °F 73.4 °F 79% 29.95 in 10.0 mi SSW 5.8 mph - N/A   Clear
11:35 PM 80.6 °F 85.4 °F 73.4 °F 79% 29.95 in 10.0 mi South 3.5 mph - N/A   Clear